MSG 4 DEB (BAFFLE COVER), 40990

Orbit data source: Space-Track

MSG 4 DEB (BAFFLE COVER), 40990 is space debris in GEO originally from a launch on Wed, 15 Jul 2015 UTC launched from the French Guiana (FRGUI). Debris objects in space refer to the collection of defunct objects orbiting the Earth. Examples of debris include non-operational satellites, rocket bodies, and fragments generated from explosions, collisions, or faulty payload assembly.

Not visible in the next 10 days
Identifier
40990, 2015-034F
Orbit
GEO
Country
Flag of UnknownUnknown / EUME
Related business
Manufacturer
SENER
Mission
Spacecraft
Bus & Motor
MSG COVER, Unknown motor
Mass
~0 kg wet, ~10 kg dry
Launch date (UTC)
2015-07-15 (11 years ago)
Launch vehicle
Unknown
Launch site
French Guiana (FRGUI)
Object type
Payload
Rocket body
Debris
Shape & HBR
Cyl, 0.8 m
Radar Cross Section
1.552 m²

Expand to show TLE details & history
Last TLE update: 2 days ago

TLE from 2 days ago
0 MSG 4 DEB (BAFFLE COVER)
1 40990U 15034F   26021.58064329 -.00000211  00000-0  00000-0 0  9998
2 40990   6.6535  81.0761 0103286 189.3357 170.4774  1.02656732 39394
Epoch: 2026-01-21T13:56Z
TLE epoch observation values (Epoch: 2026-01-21T13:56:07.580Z)
Latitude
Longitude
111.11996°
Altitude
35,553.905 km
Speed
3.067 km/s
True Right ascension
05h 24m 23s
True Declination
0° 00' 00"
Sunlit
Object was in daylight at epoch
Visualization orbit readout
Latitude
Unknown
Longitude
Unknown
Altitude
Unknown
Speed
Unknown
Apparent Right ascension
Unknown
Apparent Declination
Unknown
Sunlit
N/A
Visualization observer readout
Local Sidereal Time
21:22:29
Azimuth
Unknown
Elevation
Unknown
Doppler factor
Unknown
Orbital elements
Apogee altitude
35,560.793 km
Perigee altitude
34,703.309 km
Semi-major axis
41,510.188 km
Eccentricity
0.01033
Inclination
6.6535°
RAAN
81.0761°
Arg. of periapsis
189.3357°
True anomaly
170.67074°
Mean anomaly
170.4774°
Eccentric anomaly
170.57432°
Mean motion
0.25663 °/min
Orbital period
1,402.79 mins
BSTAR
0
Loading maneuver chart data...
Computing Atmospheric mass density...
Loading historical data...
Loading historical data...
Loading historical data...
Loading historical data...
Loading historical data...
Loading historical data...
Loading historical data...

Documentation

Showing up to 5 results
|